CZ-4 DEB, 26441

Orbit data source: Space-Track

CZ-4 DEB, 26441 is space debris in SSO originally from a launch on Thu, 14 Oct 1999 UTC launched from the Taiyaun Space Center, China (TSC). Debris objects in space refer to the collection of defunct objects orbiting the Earth. Examples of debris include non-operational satellites, rocket bodies, and fragments generated from explosions, collisions, or faulty payload assembly.

Loading next visibility...
Identifier
26441, 1999-057KN
Orbit
SSO
Country
Flag of CNCN / PRC
Related business
Manufacturer
Unknown
Mission
Spacecraft
Bus & Motor
Unknown
Mass
Unknown
Launch date (UTC)
1999-10-14 (26 years ago)
Launch vehicle
Unknown
Launch site
Taiyaun Space Center, China (TSC)
Object type
Payload
Rocket body
Debris
Shape & HBR
Unknown shape, 0.1 m
Radar Cross Section
Small (<0.1 m²)

Expand to show TLE details & history
Last TLE update: 7 hours ago

TLE from 7 hours ago
0 CZ-4 DEB
1 26441U 99057KN  25304.73818955  .00229240  00000-0  52333-2 0  9994
2 26441  98.1205  29.7306 0010932   8.9023 351.2413 15.41924292356831
Epoch: 2025-10-31T17:42Z
TLE epoch observation values (Epoch: 2025-10-31T17:42:59.577Z)
Latitude
-0.00007°
Longitude
83.70406°
Altitude
436.16 km
Speed
7.654 km/s
True Right ascension
01h 58m 55s
True Declination
0° 00' 00"
Sunlit
Object was in full shadow at epoch
Visualization orbit readout
Latitude
Unknown
Longitude
Unknown
Altitude
Unknown
Speed
Unknown
Apparent Right ascension
Unknown
Apparent Declination
Unknown
Sunlit
N/A
Visualization observer readout
Local Sidereal Time
20:41:06
Azimuth
Unknown
Elevation
Unknown
Doppler factor
Unknown
Orbital elements
Apogee altitude
444.85 km
Perigee altitude
429.949 km
Semi-major axis
6,815.536 km
Eccentricity
0.00109
Inclination
98.1205°
RAAN
29.7306°
Arg. of periapsis
8.9023°
True anomaly
351.2222°
Mean anomaly
351.2413°
Eccentric anomaly
351.23175°
Mean motion
3.85739 °/min
Orbital period
93.33 mins
BSTAR
0.0052333
Loading maneuver chart data...
Computing Atmospheric mass density...
Loading historical data...
Loading historical data...
Loading historical data...
Loading historical data...
Loading historical data...
Loading historical data...
Loading historical data...

Documentation

Showing up to 5 results
|